• In Belgien
  • Länderverzeichnis
  • Für 7 Tage
  • Wassertemperatur
  • Satellitenkarten
  • Wetterkarte
  • Widgets
  • user-avatar
    Anmelden

    Stündliche Wetter Sydney

    Heute, 24 Juni, Sonntag

    Zeit Temperatur Niederschläge Wind Luftdruck Luftfeuchtigkeit
    00:00 +8°C° 0 mm 3 m/S 768 mmHg 68%
    01:00 +8°C° 0 mm 3 m/S 768 mmHg 71%
    02:00 +7°C° 0 mm 3 m/S 768 mmHg 71%
    03:00 +7°C° 0 mm 3 m/S 768 mmHg 72%
    04:00 +7°C° 0 mm 3 m/S 768 mmHg 73%
    05:00 +7°C° 0 mm 3 m/S 768 mmHg 73%
    06:00 +7°C° 0 mm 3 m/S 769 mmHg 73%
    07:00 +6°C° 0 mm 4 m/S 769 mmHg 72%
    08:00 +8°C° 0 mm 4 m/S 769 mmHg 66%
    09:00 +11°C° 0 mm 4 m/S 769 mmHg 59%
    10:00 +14°C° 0 mm 3 m/S 769 mmHg 47%
    11:00 +16°C° 0 mm 3 m/S 769 mmHg 46%
    12:00 +17°C° 0 mm 4 m/S 769 mmHg 44%
    13:00 +18°C° 0 mm 4 m/S 768 mmHg 42%
    14:00 +17°C° 0 mm 4 m/S 768 mmHg 44%
    15:00 +17°C° 0 mm 4 m/S 768 mmHg 47%
    16:00 +15°C° 0 mm 5 m/S 768 mmHg 53%
    17:00 +13°C° 0 mm 4 m/S 768 mmHg 59%
    18:00 +12°C° 0 mm 4 m/S 769 mmHg 66%
    19:00 +10°C° 0 mm 4 m/S 770 mmHg 72%
    20:00 +10°C° 0 mm 4 m/S 770 mmHg 74%
    21:00 +8°C° 0 mm 4 m/S 770 mmHg 76%
    22:00 +9°C° 0 mm 3 m/S 770 mmHg 78%
    23:00 +8°C° 0 mm 3 m/S 770 mmHg 80%

    Morgen, 25 Juni, Montag

    Zeit Temperatur Niederschläge Wind Luftdruck Luftfeuchtigkeit
    00:00 +8°C° 0 mm 3 m/S 771 mmHg 81%
    01:00 +7°C° 0 mm 3 m/S 771 mmHg 83%
    02:00 +7°C° 0 mm 3 m/S 771 mmHg 83%
    03:00 +6°C° 0 mm 4 m/S 771 mmHg 83%
    04:00 +6°C° 0 mm 4 m/S 771 mmHg 83%
    05:00 +5°C° 0 mm 3 m/S 771 mmHg 82%
    06:00 +5°C° 0 mm 3 m/S 771 mmHg 82%
    07:00 +5°C° 0 mm 3 m/S 771 mmHg 81%
    08:00 +8°C° 0 mm 3 m/S 772 mmHg 71%
    09:00 +11°C° 0 mm 3 m/S 772 mmHg 60%
    10:00 +13°C° 0 mm 3 m/S 772 mmHg 49%
    11:00 +16°C° 0 mm 3 m/S 772 mmHg 45%
    12:00 +17°C° 0 mm 3 m/S 771 mmHg 40%
    13:00 +18°C° 0 mm 3 m/S 771 mmHg 36%
    14:00 +17°C° 0 mm 3 m/S 771 mmHg 39%
    15:00 +17°C° 0 mm 3 m/S 770 mmHg 43%
    16:00 +16°C° 0 mm 3 m/S 770 mmHg 46%
    17:00 +13°C° 0 mm 3 m/S 771 mmHg 55%
    18:00 +13°C° 0 mm 2 m/S 771 mmHg 64%
    19:00 +10°C° 0 mm 2 m/S 772 mmHg 73%
    20:00 +9°C° 0 mm 2 m/S 772 mmHg 76%
    21:00 +9°C° 0 mm 2 m/S 773 mmHg 78%
    22:00 +9°C° 0 mm 2 m/S 773 mmHg 81%
    23:00 +8°C° 0 mm 2 m/S 773 mmHg 83%

    übermorgen, 26 Juni, Dienstag

    Zeit Temperatur Niederschläge Wind Luftdruck Luftfeuchtigkeit
    00:00 +8°C° 0 mm 2 m/S 773 mmHg 84%
    01:00 +7°C° 0 mm 2 m/S 773 mmHg 86%
    02:00 +7°C° 0 mm 2 m/S 773 mmHg 87%
    03:00 +7°C° 0 mm 3 m/S 773 mmHg 87%
    04:00 +7°C° 0 mm 3 m/S 773 mmHg 88%
    05:00 +7°C° 0 mm 3 m/S 773 mmHg 88%
    06:00 +7°C° 0 mm 3 m/S 774 mmHg 89%
    07:00 +7°C° 0 mm 3 m/S 774 mmHg 89%
    08:00 +9°C° 0 mm 2 m/S 774 mmHg 80%
    09:00 +13°C° 0 mm 2 m/S 774 mmHg 72%
    10:00 +15°C° 0 mm 2 m/S 774 mmHg 63%
    11:00 +16°C° 0 mm 2 m/S 774 mmHg 61%
    12:00 +17°C° 0 mm 2 m/S 773 mmHg 58%
    13:00 +19°C° 0 mm 2 m/S 773 mmHg 56%
    14:00 +18°C° 0 mm 2 m/S 773 mmHg 59%
    15:00 +17°C° 0 mm 3 m/S 773 mmHg 62%
    16:00 +17°C° 0 mm 3 m/S 773 mmHg 65%
    17:00 +15°C° 0 mm 2 m/S 773 mmHg 74%
    18:00 +14°C° 0 mm 2 m/S 773 mmHg 83%
    19:00 +12°C° 0 mm 2 m/S 774 mmHg 92%
    20:00 +12°C° 0 mm 2 m/S 774 mmHg 93%
    21:00 +12°C° 0 mm 2 m/S 774 mmHg 93%
    22:00 +12°C° 0 mm 2 m/S 774 mmHg 94%
    23:00 +12°C° 0,1 mm 2 m/S 774 mmHg 94%

    27 Juni, Mittwoch

    Zeit Temperatur Niederschläge Wind Luftdruck Luftfeuchtigkeit
    00:00 +12°C° 0,1 mm 2 m/S 773 mmHg 94%
    01:00 +12°C° 0,1 mm 2 m/S 773 mmHg 94%
    02:00 +12°C° 0,2 mm 2 m/S 773 mmHg 94%
    03:00 +12°C° 0,2 mm 1 m/S 773 mmHg 95%
    04:00 +12°C° 0,2 mm 1 m/S 773 mmHg 95%
    05:00 +12°C° 0,1 mm 1 m/S 773 mmHg 95%
    06:00 +11°C° 0,1 mm 1 m/S 773 mmHg 95%
    07:00 +11°C° 0,1 mm 1 m/S 773 mmHg 95%
    08:00 +13°C° 0,3 mm 1 m/S 773 mmHg 91%
    09:00 +14°C° 0,3 mm 2 m/S 773 mmHg 87%
    10:00 +15°C° 0,3 mm 2 m/S 773 mmHg 83%
    11:00 +16°C° 0,5 mm 2 m/S 772 mmHg 77%
    12:00 +17°C° 0,5 mm 2 m/S 771 mmHg 71%
    13:00 +18°C° 0,5 mm 2 m/S 771 mmHg 64%
    14:00 +18°C° 0,3 mm 3 m/S 770 mmHg 67%
    15:00 +18°C° 0,3 mm 3 m/S 770 mmHg 69%
    16:00 +17°C° 0,3 mm 3 m/S 770 mmHg 72%
    17:00 +16°C° 0,3 mm 3 m/S 770 mmHg 77%
    18:00 +14°C° 0,3 mm 3 m/S 770 mmHg 82%
    19:00 +13°C° 0,3 mm 4 m/S 770 mmHg 88%
    20:00 +13°C° 0,3 mm 4 m/S 770 mmHg 89%
    21:00 +13°C° 0,3 mm 4 m/S 770 mmHg 90%
    22:00 +13°C° 0,3 mm 4 m/S 770 mmHg 91%
    23:00 +12°C° 0,1 mm 4 m/S 770 mmHg 92%

    28 Juni, Donnerstag

    Zeit Temperatur Niederschläge Wind Luftdruck Luftfeuchtigkeit
    00:00 +12°C° 0,1 mm 4 m/S 769 mmHg 92%
    01:00 +12°C° 0,1 mm 4 m/S 769 mmHg 93%
    02:00 +12°C° 0,1 mm 4 m/S 769 mmHg 93%
    03:00 +12°C° 0,1 mm 4 m/S 768 mmHg 93%
    04:00 +11°C° 0,1 mm 4 m/S 768 mmHg 93%
    05:00 +12°C° 0,6 mm 4 m/S 768 mmHg 93%
    06:00 +12°C° 0,6 mm 4 m/S 768 mmHg 94%
    07:00 +12°C° 0,6 mm 4 m/S 768 mmHg 95%
    08:00 +12°C° 0,5 mm 3 m/S 768 mmHg 93%
    09:00 +13°C° 0,5 mm 3 m/S 768 mmHg 91%
    10:00 +15°C° 0,5 mm 2 m/S 768 mmHg 89%
    11:00 +16°C° 0,2 mm 2 m/S 767 mmHg 81%
    12:00 +17°C° 0,2 mm 3 m/S 766 mmHg 74%
    13:00 +19°C° 0,2 mm 3 m/S 766 mmHg 67%
    14:00 +18°C° 0,2 mm 3 m/S 765 mmHg 70%
    15:00 +18°C° 0,2 mm 3 m/S 765 mmHg 74%
    16:00 +18°C° 0,2 mm 3 m/S 765 mmHg 77%
    17:00 +17°C° 0,4 mm 3 m/S 765 mmHg 81%
    18:00 +14°C° 0,4 mm 3 m/S 765 mmHg 86%
    19:00 +13°C° 0,4 mm 3 m/S 766 mmHg 90%
    20:00 +12°C° 0,2 mm 3 m/S 766 mmHg 91%
    21:00 +12°C° 0,2 mm 3 m/S 766 mmHg 91%
    22:00 +11°C° 0,2 mm 3 m/S 766 mmHg 92%
    23:00 +11°C° 0 mm 3 m/S 766 mmHg 92%

    29 Juni, Freitag

    Zeit Temperatur Niederschläge Wind Luftdruck Luftfeuchtigkeit
    00:00 +11°C° 0 mm 3 m/S 765 mmHg 92%
    01:00 +10°C° 0 mm 3 m/S 765 mmHg 92%
    02:00 +10°C° 0 mm 3 m/S 765 mmHg 92%
    03:00 +10°C° 0 mm 2 m/S 765 mmHg 93%
    04:00 +9°C° 0 mm 2 m/S 765 mmHg 93%
    05:00 +9°C° 0 mm 3 m/S 765 mmHg 93%
    06:00 +9°C° 0 mm 3 m/S 765 mmHg 93%
    07:00 +8°C° 0 mm 3 m/S 766 mmHg 93%
    08:00 +10°C° 0 mm 3 m/S 766 mmHg 86%
    09:00 +13°C° 0 mm 2 m/S 766 mmHg 79%
    10:00 +15°C° 0 mm 2 m/S 766 mmHg 72%
    11:00 +17°C° 0 mm 3 m/S 765 mmHg 63%
    12:00 +19°C° 0 mm 3 m/S 764 mmHg 55%
    13:00 +20°C° 0 mm 3 m/S 764 mmHg 46%
    14:00 +20°C° 0 mm 3 m/S 764 mmHg 48%
    15:00 +19°C° 0 mm 2 m/S 764 mmHg 49%
    16:00 +19°C° 0 mm 2 m/S 763 mmHg 50%
    17:00 +17°C° 0 mm 2 m/S 764 mmHg 56%
    18:00 +16°C° 0 mm 3 m/S 764 mmHg 63%
    19:00 +13°C° 0 mm 3 m/S 765 mmHg 69%
    20:00 +12°C° 0 mm 3 m/S 765 mmHg 72%
    21:00 +11°C° 0 mm 3 m/S 765 mmHg 76%
    22:00 +11°C° 0 mm 3 m/S 765 mmHg 80%
    23:00 +10°C° 0 mm 3 m/S 765 mmHg 82%
    Mehr zeigen